Effective Sunday, March 17, 2024, the National Weather Service National Data Buoy Center will discontinue its Dial-A-Buoy Interactive Voice Response system. For more information, see Service Change Notice 24-06 (PDF).

Station SAPF1 - 8726520 - St. Petersburg, Tampa Bay, FL Image indicating link to RSS feed of recent meteorological observations for station SAPF1


Conditions at SAPF1 as of
(7:30 pm EST on 03/01/2024)
0030 GMT on 03/02/2024:
     

Click on the graph icon in the table below to see a time series plot of the last five days of that observation.

5-day plot - Wind Direction Wind Direction (WDIR):SSW ( 210 deg true )
5-day plot - Wind Speed Wind Speed (WSPD): 8.9 kts
5-day plot - Wind Gust Wind Gust (GST): 11.1 kts
5-day plot - Atmospheric Pressure Atmospheric Pressure (PRES):30.17 in
5-day plot - Air Temperature Air Temperature (ATMP): 71.1 °F
5-day plot - Water Temperature Water Temperature (WTMP): 69.6 °F
5-day plot - Wind Speed at 10 Meters Wind Speed at 10 meters (WSPD10M): 9.7 kts
5-day plot - Wind Speed at 20 Meters Wind Speed at 20 meters (WSPD20M): 9.7 kts
5-day plot -  Wind Speed, Wind Gust and Atmospheric Pressure Combined plot of Wind Speed, Gust, and Air Pressure
NOS Water Level Observation Network Water Level
Previous observations
TIME
(EST)
5-day plot - Wind Direction
WDIR
 
5-day plot - Wind Speed
WSPD
kts
5-day plot - Wind Gust
GST
kts
5-day plot - Wave Height
WVHT
ft
5-day plot - Dominant Wave Period
DPD
sec
5-day plot - Average Wave Period
APD
sec
5-day plot - Mean Wave Direction
MWD
 
5-day plot - Atmospheric Pressure
PRES
in
5-day plot - Pressure Tendency
PTDY
in
5-day plot - Air Temperature
ATMP
°F
5-day plot - Water Temperature
WTMP
°F
5-day plot - Dew Point
DEWP
°F
5-day plot - Salinity
SAL
psu
5-day plot - Visibility
VIS
nmi
5-day plot - Tide (above MLLW)
TIDE
ft
2024-03-01 07:24 pmSSW 8.9 12.0----30.16- 71.2 69.6----
2024-03-01 07:18 pmSSW 7.0 9.9----30.16- 71.2 69.6----
2024-03-01 07:12 pmSSW 7.0 9.9----30.16- 71.2 69.4----
2024-03-01 07:06 pm SW 8.0 9.9----30.17- 71.4 69.4----
2024-03-01 07:00 pm SW 8.0 11.1----30.17+0.00 71.4 69.4----
2024-03-01 06:54 pm SW 7.0 11.1----30.17- 71.4 69.4----
2024-03-01 06:48 pm SW 7.0 8.9----30.17- 71.6 69.4----
2024-03-01 06:42 pm SW 7.0 11.1----30.16- 71.6 69.4----
2024-03-01 06:36 pmWSW 7.0 9.9----30.16- 71.8 69.4----
2024-03-01 06:30 pm SW 8.0 11.1----30.16- 71.8 69.4----
2024-03-01 06:24 pm SW 8.9 9.9----30.16- 72.0 69.4----
2024-03-01 06:18 pmWSW 8.9 11.1----30.15- 72.0 69.4----
2024-03-01 06:12 pm SW 8.9 9.9----30.15- 72.3 69.3----
2024-03-01 06:06 pm SW 7.0 9.9----30.16- 72.7 69.4----
2024-03-01 06:00 pm SW 8.0 9.9----30.15-0.02 72.9 69.4----
2024-03-01 05:54 pm SW 8.0 11.1----30.15- 72.9 69.4----
2024-03-01 05:48 pm SW 8.0 12.0----30.15- 73.0 69.4----
2024-03-01 05:42 pm SW 8.0 11.1----30.14- 73.2 69.6----
2024-03-01 05:36 pm SW 8.0 11.1----30.14- 73.4 69.8----
2024-03-01 05:30 pm SW 8.9 11.1----30.14- 73.6 69.8----
2024-03-01 05:24 pmWSW 7.0 11.1----30.15- 73.6 69.8----
2024-03-01 05:18 pmWSW 8.9 12.0----30.15- 73.9 69.8----
2024-03-01 05:12 pm SW 6.0 9.9----30.15- 74.5 69.8----
2024-03-01 05:06 pmWSW 7.0 9.9----30.15- 74.7 69.8----
2024-03-01 05:00 pm SW 7.0 11.1----30.15-0.04 74.7 69.8----
2024-03-01 04:54 pm SW 8.9 11.1----30.14- 74.8 69.8----
2024-03-01 04:48 pmSSW 8.0 12.0----30.14- 74.7 69.8----
2024-03-01 04:42 pm SW 8.9 12.0----30.14- 74.8 69.8----
2024-03-01 04:36 pm SW 8.9 11.1----30.15- 75.2 69.8----
2024-03-01 04:30 pm SW 9.9 14.0----30.15- 75.2 69.8----
2024-03-01 04:24 pm SW 12.0 13.0----30.15- 75.0 70.0----
2024-03-01 04:18 pm SW 9.9 13.0----30.16- 75.2 70.2----
2024-03-01 04:12 pmSSW 11.1 13.0----30.16- 75.0 70.2----
2024-03-01 04:06 pmSSW 11.1 14.0----30.16- 75.2 70.5----
2024-03-01 04:00 pmSSW 8.0 11.1----30.16-0.05 75.4 70.7----
2024-03-01 03:54 pm SW 8.0 12.0----30.16- 75.4 70.9----
2024-03-01 03:48 pmSSW 11.1 13.0----30.16- 75.4 70.9----
2024-03-01 03:42 pm SW 8.9 14.0----30.16- 75.6 70.9----
2024-03-01 03:36 pmSSW 8.0 12.0----30.16- 75.0 70.9----
2024-03-01 03:30 pm SW 8.0 11.1----30.17- 75.2 70.7----
2024-03-01 03:24 pm SW 9.9 12.0----30.17- 75.0 70.9----
2024-03-01 03:18 pm SW 9.9 11.1----30.17- 75.0 70.7----
2024-03-01 03:12 pmSSW 8.0 12.0----30.17- 75.2 70.5----
2024-03-01 03:06 pm SW 11.1 14.0----30.17- 75.2 70.2----
2024-03-01 03:00 pm SW 9.9 14.0----30.17-0.06 75.4 70.3----
2024-03-01 02:54 pm SW 8.9 14.0----30.17- 75.2 70.7----
2024-03-01 02:48 pmSSW 9.9 14.0----30.18- 75.0 70.5----
2024-03-01 02:42 pm SW 8.0 11.1----30.18- 75.2 70.9----
2024-03-01 02:36 pm SW 9.9 14.0----30.18- 75.0 70.7----
2024-03-01 02:30 pm SW 9.9 12.0----30.19- 74.7 70.7----
2024-03-01 02:24 pmSSW 9.9 12.0----30.19- 74.5 70.5----
2024-03-01 02:18 pm SW 9.9 12.0----30.19- 74.7 70.2----
2024-03-01 02:12 pm SW 8.9 11.1----30.19- 74.8 70.0----
2024-03-01 02:06 pmWSW 8.0 11.1----30.19- 74.8 70.2----
2024-03-01 02:00 pm SW 8.9 13.0----30.19-0.04 74.8 70.2----
2024-03-01 01:54 pm SW 11.1 13.0----30.19- 75.2 70.3----
2024-03-01 01:48 pmWSW 8.9 12.0----30.19- 75.6 70.3----
2024-03-01 01:42 pm SW 8.9 12.0----30.20- 76.3 70.2----
2024-03-01 01:36 pmWSW 7.0 9.9----30.20- 76.6 70.0----
2024-03-01 01:30 pm S 8.0 9.9----30.20- 76.6 69.8----
2024-03-01 01:24 pm S 8.0 8.9----30.20- 76.1 69.8----
2024-03-01 01:18 pm S 6.0 8.0----30.20- 76.3 69.8----
2024-03-01 01:12 pm S 7.0 8.0----30.21- 76.1 69.8----
2024-03-01 01:06 pm S 6.0 8.0----30.21- 75.4 69.8----
2024-03-01 01:00 pm S 6.0 8.0----30.21-0.02 75.4 69.6----
2024-03-01 12:54 pm S 5.1 8.0----30.21- 75.4 69.4----
2024-03-01 12:48 pm S 6.0 8.0----30.21- 75.2 69.4----
2024-03-01 12:42 pm S 7.0 8.9----30.21- 74.3 69.4----
2024-03-01 12:36 pm S 6.0 8.0----30.21- 74.3 69.6----
2024-03-01 12:30 pm S 6.0 7.0----30.22- 73.6 69.6----
2024-03-01 12:24 pmSSE 5.1 7.0----30.22- 73.0 69.4----
2024-03-01 12:18 pmSSE 6.0 7.0----30.22- 73.0 69.4----
2024-03-01 12:12 pm S 5.1 6.0----30.22- 73.4 69.4----
2024-03-01 12:06 pmSSE 5.1 6.0----30.22- 73.6 69.4----
2024-03-01 12:00 pmSSE 2.9 5.1----30.23+0.00 73.6 69.4----
2024-03-01 11:54 amSSE 5.1 6.0----30.23- 72.9 69.4----
2024-03-01 11:48 amSSE 5.1 7.0----30.23- 72.9 69.4----
2024-03-01 11:42 amSSE 5.1 7.0----30.23- 72.9 69.8----
2024-03-01 11:36 am S 6.0 7.0----30.23- 72.5 69.6----
2024-03-01 11:30 amSSE 5.1 8.0----30.23- 72.3 69.4----
2024-03-01 11:24 amSSE 4.1 6.0----30.23- 72.5 69.6----
2024-03-01 11:18 amSSE 5.1 6.0----30.23- 72.5 69.6----
2024-03-01 11:12 amSSE 2.9 5.1----30.23- 73.2 69.4----
2024-03-01 11:06 amSSE 4.1 6.0----30.23- 72.9 69.4----
2024-03-01 11:00 amSSE 5.1 7.0----30.23+0.01 72.5 69.3----
2024-03-01 10:54 amSSE 5.1 8.0----30.23- 72.9 69.3----
2024-03-01 10:48 amSSE 4.1 7.0----30.23- 72.7 69.1----
2024-03-01 10:42 amSSE 5.1 8.0----30.23- 72.5 68.9----
2024-03-01 10:36 amSSE 4.1 6.0----30.23- 72.3 68.9----
2024-03-01 10:30 amSSE 4.1 6.0----30.23- 72.0 68.9----
2024-03-01 10:24 amSSE 2.9 5.1----30.24- 71.4 68.9----
2024-03-01 10:18 amSSE 4.1 5.1----30.24- 70.9 68.9----
2024-03-01 10:12 amSSE 4.1 6.0----30.23- 71.1 68.9----
2024-03-01 10:06 amSSE 4.1 6.0----30.23- 71.1 68.9----
2024-03-01 10:00 amSSE 2.9 5.1----30.23+0.02 70.5 68.9----
2024-03-01 09:54 amSSE 2.9 4.1----30.23- 70.2 68.9----
2024-03-01 09:48 amSSE 2.9 6.0----30.23- 70.2 68.9----
2024-03-01 09:42 amSSE 2.9 6.0----30.23- 70.5 68.9----
2024-03-01 09:36 amSSE 4.1 7.0----30.22- 70.5 68.9----
2024-03-01 09:30 amSSE 2.9 5.1----30.23- 70.5 68.9----
2024-03-01 09:24 am SE 2.9 5.1----30.23- 70.2 68.7----
2024-03-01 09:18 amESE 2.9 7.0----30.22- 69.6 68.7----
2024-03-01 09:12 amESE 4.1 6.0----30.22- 69.1 68.7----
2024-03-01 09:06 amESE 4.1 7.0----30.23- 68.7 68.7----
2024-03-01 09:00 amESE 4.1 7.0----30.23+0.02 68.5 68.7----
2024-03-01 08:54 amESE 4.1 7.0----30.22- 68.2 68.7----
2024-03-01 08:48 amESE 4.1 8.0----30.22- 68.2 68.7----
2024-03-01 08:42 amESE 6.0 8.9----30.22- 68.0 68.9----
2024-03-01 08:36 amESE 5.1 8.0----30.22- 68.0 68.9----
2024-03-01 08:30 amESE 5.1 8.9----30.22- 67.8 68.7----
2024-03-01 08:24 amESE 5.1 8.0----30.22- 67.6 68.7----
2024-03-01 08:18 amESE 4.1 8.0----30.22- 67.5 68.7----
2024-03-01 08:12 amESE 6.0 9.9----30.22- 67.3 68.7----
2024-03-01 08:06 amESE 5.1 8.0----30.22- 67.3 68.9----
2024-03-01 08:00 am E 4.1 8.0----30.22+0.01 67.3 68.9----
2024-03-01 07:54 amESE 4.1 6.0----30.22- 66.9 68.9----
2024-03-01 07:48 am E 2.9 7.0----30.22- 66.9 68.9----
2024-03-01 07:42 amESE 4.1 8.9----30.22- 66.7 68.9----
2024-03-01 07:36 am E 6.0 8.9----30.22- 66.6 68.9----
2024-03-01 07:30 am E 6.0 8.9----30.22- 66.6 68.9----
2024-03-01 07:24 am E 6.0 9.9----30.22- 66.6 68.9----
2024-03-01 07:18 am E 7.0 9.9----30.22- 66.4 68.9----
2024-03-01 07:12 am E 6.0 9.9----30.22- 66.4 68.9----
2024-03-01 07:06 am E 7.0 11.1----30.22- 66.2 68.9----
2024-03-01 07:00 am E 8.0 11.1----30.21+0.00 66.0 68.9----
2024-03-01 06:54 am E 8.0 11.1----30.21- 66.0 68.9----
2024-03-01 06:48 am E 7.0 9.9----30.21- 66.0 68.9----
2024-03-01 06:42 am E 7.0 9.9----30.21- 66.0 68.9----
2024-03-01 06:36 am E 6.0 9.9----30.21- 66.2 68.9----
2024-03-01 06:30 am E 7.0 9.9----30.20- 66.0 68.9----
2024-03-01 06:24 am E 7.0 9.9----30.21- 66.0 68.9----
2024-03-01 06:18 am E 6.0 9.9----30.21- 66.0 68.9----
2024-03-01 06:12 am E 7.0 9.9----30.21- 66.0 68.7----
2024-03-01 06:06 am E 6.0 8.9----30.21- 65.8 68.7----
2024-03-01 06:00 am E 6.0 9.9----30.21+0.00 65.8 68.7----
2024-03-01 05:54 am E 7.0 8.9----30.21- 65.7 68.7----
2024-03-01 05:48 am E 6.0 9.9----30.20- 65.7 68.7----
2024-03-01 05:42 am E 7.0 8.9----30.20- 65.5 68.7----
2024-03-01 05:36 amENE 7.0 9.9----30.20- 65.5 68.7----
2024-03-01 05:30 amENE 6.0 9.9----30.21- 65.5 68.7----
2024-03-01 05:24 am E 6.0 9.9----30.21- 65.3 68.7----
2024-03-01 05:18 am E 6.0 11.1----30.21- 65.3 68.7----
2024-03-01 05:12 amENE 8.0 12.0----30.20- 65.3 68.7----
2024-03-01 05:06 amENE 8.0 12.0----30.21- 65.3 68.7----
2024-03-01 05:00 amENE 8.0 11.1----30.21-0.02 65.1 68.7----
2024-03-01 04:54 amENE 6.0 11.1----30.20- 65.1 68.7----
2024-03-01 04:48 amENE 8.0 11.1----30.20- 65.1 68.7----
2024-03-01 04:42 amENE 8.0 14.0----30.20- 65.1 68.7----
2024-03-01 04:36 amENE 8.0 11.1----30.20- 65.1 68.7----
2024-03-01 04:30 amENE 8.0 11.1----30.20- 65.1 68.7----
2024-03-01 04:24 amENE 7.0 12.0----30.20- 65.3 68.7----
2024-03-01 04:18 amENE 8.0 11.1----30.19- 65.5 68.7----
2024-03-01 04:12 amENE 7.0 8.9----30.19- 65.1 68.7----
2024-03-01 04:06 amENE 7.0 8.9----30.20- 64.9 68.7----
2024-03-01 04:00 amENE 7.0 11.1----30.20-0.03 64.9 68.7----
2024-03-01 03:54 am NE 8.9 12.0----30.20- 64.9 68.7----
2024-03-01 03:48 amENE 7.0 11.1----30.19- 64.9 68.7----
2024-03-01 03:42 amENE 7.0 9.9----30.20- 64.8 68.7----
2024-03-01 03:36 amENE 8.0 12.0----30.19- 64.8 68.7----
2024-03-01 03:30 amENE 8.0 12.0----30.19- 64.8 68.7----
2024-03-01 03:24 am NE 8.9 11.1----30.20- 64.8 68.7----
2024-03-01 03:18 am NE 11.1 12.0----30.20- 64.8 68.7----
2024-03-01 03:12 am NE 9.9 12.0----30.20- 64.8 68.7----
2024-03-01 03:06 amENE 8.9 12.0----30.21- 64.6 68.7----
2024-03-01 03:00 amENE 8.9 12.0----30.21-0.02 64.8 68.7----
2024-03-01 02:54 am NE 8.9 12.0----30.22- 64.6 68.7----
2024-03-01 02:48 am NE 9.9 13.0----30.22- 64.8 68.7----
2024-03-01 02:42 amENE 8.9 13.0----30.22- 64.6 68.7----
2024-03-01 02:36 amENE 8.0 14.0----30.22- 64.8 68.9----
2024-03-01 02:30 amENE 9.9 14.0----30.22- 64.8 68.9----
2024-03-01 02:24 amENE 8.0 13.0----30.22- 64.9 68.9----
2024-03-01 02:18 amENE 8.9 13.0----30.22- 64.9 68.9----
2024-03-01 02:12 amENE 8.9 12.0----30.22- 64.9 68.9----
2024-03-01 02:06 amENE 8.0 11.1----30.22- 64.9 68.9----
2024-03-01 02:00 am NE 8.9 12.0----30.22-0.01 64.9 68.9----
2024-03-01 01:54 amENE 8.9 12.0----30.23- 64.9 68.9----
2024-03-01 01:48 am NE 9.9 12.0----30.23- 64.9 68.9----
2024-03-01 01:42 amENE 8.9 12.0----30.23- 64.9 68.9----
2024-03-01 01:36 amENE 8.0 12.0----30.23- 65.1 68.9----
2024-03-01 01:30 am NE 9.9 13.0----30.23- 65.1 69.1----
2024-03-01 01:24 am NE 9.9 13.0----30.23- 65.1 69.1----
2024-03-01 01:18 am NE 11.1 13.0----30.23- 65.1 69.1----
2024-03-01 01:12 am NE 8.9 12.0----30.23- 65.3 69.1----
2024-03-01 01:06 am NE 8.9 14.0----30.23- 65.7 69.3----
2024-03-01 01:00 am NE 9.9 13.0----30.23-0.01- 69.4----
2024-03-01 12:54 am NE 11.1 13.0----30.24-- 69.4----
2024-03-01 12:48 am NE 8.9 12.0----30.24- 65.8 69.4----
2024-03-01 12:42 am NE 8.9 12.0----30.24- 65.8 69.4----
2024-03-01 12:36 am NE 8.9 11.1----30.24- 66.0 69.4----
2024-03-01 12:30 am NE 8.0 12.0----30.24- 66.0 69.4----
2024-03-01 12:24 am NE 11.1 13.0----30.23- 65.8 69.4----
2024-03-01 12:18 am NE 8.9 13.0----30.23- 65.8 69.4----
2024-03-01 12:12 am NE 8.9 11.1----30.23- 65.8 69.3----
2024-03-01 12:06 am NE 8.9 14.0----30.23- 66.0 69.3----
2024-03-01 12:00 am NE 11.1 15.0----30.23-0.02 66.0 69.3----
2024-02-29 11:54 pm NE 12.0 14.0----30.23- 66.0 69.3----
2024-02-29 11:48 pm NE 12.0 14.0----30.23- 66.0 69.3----
2024-02-29 11:42 pm NE 9.9 14.0----30.23- 66.0 69.3----
2024-02-29 11:36 pm NE 11.1 13.0----30.23- 66.0 69.3----
2024-02-29 11:30 pmENE 9.9 13.0----30.23- 66.2 69.3----
2024-02-29 11:24 pm NE 11.1 13.0----30.23- 66.2 69.3----
2024-02-29 11:18 pm NE 11.1 13.0----30.24- 66.2 69.1----
2024-02-29 11:12 pm NE 11.1 13.0----30.24- 66.2 69.1----
2024-02-29 11:06 pm NE 11.1 13.0----30.24- 66.2 69.1----
2024-02-29 11:00 pmENE 8.9 12.0----30.24+0.01 66.4 69.1----
2024-02-29 10:54 pm NE 11.1 13.0----30.24- 66.2 69.1----
2024-02-29 10:48 pm NE 12.0 17.1----30.24- 66.2 69.1----
2024-02-29 10:42 pmENE 11.1 15.0----30.24- 66.2 69.1----
2024-02-29 10:36 pm NE 13.0 15.9----30.24- 66.4 69.1----
2024-02-29 10:30 pmENE 12.0 17.1----30.24- 66.4 69.1----
2024-02-29 10:24 pm NE 14.0 18.1----30.24- 66.4 69.1----
2024-02-29 10:18 pmENE 12.0 19.0----30.24- 66.6 69.1----
2024-02-29 10:12 pmENE 13.0 19.0----30.24- 66.6 69.1----
2024-02-29 10:06 pmENE 12.0 18.1----30.24- 66.7 69.1----
2024-02-29 10:00 pmENE 13.0 19.0----30.24+0.04 66.9 69.1----
2024-02-29 09:54 pmENE 12.0 19.0----30.24- 67.1 68.9----
2024-02-29 09:48 pmENE 15.9 20.0----30.24- 67.1 68.9----
2024-02-29 09:42 pm NE 15.0 19.0----30.24- 67.3 68.9----
2024-02-29 09:36 pmENE 15.9 20.0----30.24- 67.3 68.9----
2024-02-29 09:30 pm NE 15.0 19.0----30.24- 67.3 68.9----
2024-02-29 09:24 pm NE 17.1 20.0----30.25- 67.5 68.9----
2024-02-29 09:18 pm NE 15.9 20.0----30.24- 67.6 68.9----
2024-02-29 09:12 pm NE 15.0 18.1----30.24- 67.6 68.9----
2024-02-29 09:06 pm NE 17.1 21.0----30.24- 68.0 68.9----
2024-02-29 09:00 pm NE 17.1 20.0----30.25+0.05 68.0 68.9----
2024-02-29 08:54 pm NE 14.0 17.1----30.24- 68.2 68.9----
2024-02-29 08:48 pm NE 12.0 15.9----30.24- 68.4 68.9----
2024-02-29 08:42 pmENE 14.0 19.0----30.24- 68.5 68.9----
2024-02-29 08:36 pmENE 17.1 21.0----30.24- 68.5 68.9----
2024-02-29 08:30 pm NE 13.0 18.1----30.24- 68.9 68.9----
2024-02-29 08:24 pm NE 15.0 19.0----30.24- 69.1 68.9----
2024-02-29 08:18 pm NE 17.1 21.0----30.24- 69.1 68.9----
2024-02-29 08:12 pmENE 12.0 19.0----30.23- 69.3 68.9----
2024-02-29 08:06 pmENE 15.9 20.0----30.23- 69.3 68.9----
2024-02-29 08:00 pmENE 15.9 20.0----30.23+0.04 69.8 68.9----
2024-02-29 07:54 pm NE 13.0 17.1----30.23- 70.2 68.9----